sat.trackr.live / text

‹ back to catalog

LEMUR-2-CARROLLEMO

NORAD 68489 · 2026-067CB

PAYLOAD ACTIVE UNKNOWN

§ Identity

Operator
Country
GER
Launch date
2026-03-30
Launch site
AFWTR
Launch vehicle
Mass (kg)
RCS (m²)

External: N2YO · Heavens-Above · Gunter

§ Orbital elements

Epoch: 2026-05-24T20:30:29.867904Z

Period
96.55 min
Inclination
97.7522°
Eccentricity
0.0003442
Mean motion
14.91467167 rev/d
Perigee alt
591.0 km
Apogee alt
595.8 km
Semi-major
6,971.5 km
B*
2.5971e-4
RAAN
103.3984°
Arg perigee
117.5644°
Mean anomaly
242.5925°
Rev number
824

§ Raw data

LEMUR-2-CARROLLEMO1 68489U 26067CB  26144.85451236  .00002542  00000+0  25971-3 0  99962 68489  97.7522 103.3984 0003442 117.5644 242.5925 14.91467167  8247

JSON: /api/v1/satellites/68489 · /tle

For live sub-satellite position, see the globe view (requires WebGL).

§ Visibility from observer

Set your observer location to see the next 7 days of passes ≥ 10°. The values pass through the URL so the page stays shareable.

No JS? Fill the form by hand. The geolocation button needs JavaScript.